Location: Eboldshausen
(51.7766°N, 10.0050°E)
Time: 07:09:08
(UTC+00:00)

UNK - Pass Details

Date: 15 November 2025
Orbit: 655 x 672 km, 98.4° (Epoch: 10 December)

Event Time Altitude Azimuth Distance (km) Brightness Sun altitude
Rises 17:02:41 0° 12° (NNE) 3,035 6.9 -14.3°
Reaches altitude 10° 17:04:56 10° 10° (N) 2,117 6.1 -14.6°
Maximum altitude 17:09:30 64° 289° (WNW) 751 4.2 -15.3°
Drops below altitude 10° 17:14:03 10° 209° (SSW) 2,101 6.8 -16.0°
Sets 17:16:17 0° 206° (SSW) 3,010 7.6 -16.3°
